TimeEST,TemperatureF,Dew PointF,Humidity,Sea Level PressureIn,VisibilityMPH,Wind Direction,Wind SpeedMPH,Gust SpeedMPH,PrecipitationIn,Events,Conditions,WindDirDegrees,DateUTC
12:51 AM,35.1,21.9,59,29.79,10.0,SW,6.9,-,N/A,,Overcast,230,2013-01-01 05:51:00
1:51 AM,35.1,21.9,59,29.81,10.0,SW,8.1,-,N/A,,Overcast,230,2013-01-01 06:51:00
2:51 AM,35.1,21.9,59,29.80,10.0,SW,8.1,-,N/A,,Overcast,230,2013-01-01 07:51:00
3:51 AM,34.0,21.9,61,29.77,10.0,SW,9.2,18.4,N/A,,Mostly Cloudy,230,2013-01-01 08:51:00
4:51 AM,33.1,21.9,64,29.78,10.0,WSW,11.5,-,N/A,,Mostly Cloudy,240,2013-01-01 09:51:00
5:51 AM,33.1,23.0,66,29.80,10.0,SW,6.9,-,N/A,,Mostly Cloudy,220,2013-01-01 10:51:00
6:51 AM,34.0,24.1,67,29.80,10.0,SW,10.4,-,N/A,,Mostly Cloudy,230,2013-01-01 11:51:00
7:51 AM,34.0,24.1,67,29.80,10.0,SW,8.1,-,N/A,,Mostly Cloudy,230,2013-01-01 12:51:00
8:51 AM,35.1,24.1,64,29.82,10.0,WSW,5.8,-,N/A,,Mostly Cloudy,250,2013-01-01 13:51:00
9:51 AM,37.0,25.0,62,29.83,10.0,West,8.1,18.4,N/A,,Mostly Cloudy,280,2013-01-01 14:51:00
10:51 AM,36.0,19.9,52,29.81,10.0,WNW,21.9,28.8,N/A,,Mostly Cloudy,290,2013-01-01 15:51:00
11:51 AM,36.0,18.0,48,29.81,10.0,WNW,11.5,23.0,N/A,,Mostly Cloudy,300,2013-01-01 16:51:00
12:51 PM,35.1,17.1,48,29.78,10.0,WNW,13.8,21.9,N/A,,Mostly Cloudy,300,2013-01-01 17:51:00
1:51 PM,35.1,17.1,48,29.78,10.0,WNW,11.5,21.9,N/A,,Mostly Cloudy,290,2013-01-01 18:51:00
2:51 PM,34.0,16.0,48,29.79,10.0,NW,8.1,20.7,N/A,,Mostly Cloudy,310,2013-01-01 19:51:00
3:51 PM,33.1,15.1,48,29.80,10.0,NW,11.5,19.6,0.00,Snow,Light Snow,310,2013-01-01 20:51:00
4:51 PM,30.9,10.9,43,29.83,10.0,WNW,12.7,26.5,N/A,,Mostly Cloudy,290,2013-01-01 21:51:00
5:51 PM,28.9,10.0,45,29.86,10.0,NW,11.5,23.0,N/A,,Overcast,310,2013-01-01 22:51:00
6:51 PM,28.0,10.0,47,29.88,10.0,NW,13.8,21.9,N/A,,Overcast,310,2013-01-01 23:51:00
7:51 PM,28.0,10.0,47,29.90,10.0,WNW,13.8,-,N/A,,Mostly Cloudy,300,2013-01-02 00:51:00
8:51 PM,26.1,10.0,51,29.91,10.0,WNW,13.8,-,N/A,,Mostly Cloudy,290,2013-01-02 01:51:00
9:51 PM,25.0,8.1,49,29.92,10.0,NW,12.7,-,N/A,,Scattered Clouds,310,2013-01-02 02:51:00
10:51 PM,24.1,6.1,46,29.94,10.0,WNW,11.5,18.4,N/A,,Mostly Cloudy,290,2013-01-02 03:51:00
11:51 PM,21.9,6.1,51,29.95,10.0,WNW,5.8,-,N/A,,Scattered Clouds,290,2013-01-02 04:51:00